TimeCST,TemperatureF,Dew PointF,Humidity,Sea Level PressureIn,VisibilityMPH,Wind Direction,Wind SpeedMPH,Gust SpeedMPH,PrecipitationIn,Events,Conditions,WindDirDegrees,DateUTC
12:15 AM,31.1,26.6,83,30.59,10.0,North,5.8,-,N/A,,Clear,350,2013-12-24 06:15:00
12:35 AM,30.7,26.2,83,30.58,10.0,North,4.6,-,N/A,,Clear,360,2013-12-24 06:35:00
12:55 AM,30.6,26.1,83,30.57,10.0,North,5.8,-,N/A,,Clear,10,2013-12-24 06:55:00
1:15 AM,30.2,26.4,86,30.57,10.0,NNE,5.8,-,N/A,,Clear,20,2013-12-24 07:15:00
1:35 AM,30.2,26.4,86,30.55,10.0,North,9.2,-,N/A,,Clear,360,2013-12-24 07:35:00
1:55 AM,29.7,26.1,86,30.56,10.0,North,6.9,-,N/A,,Clear,360,2013-12-24 07:55:00
2:15 AM,30.0,26.1,85,30.57,10.0,NNW,6.9,-,N/A,,Clear,330,2013-12-24 08:15:00
2:35 AM,30.0,26.1,85,30.57,10.0,NNW,5.8,-,N/A,,Clear,330,2013-12-24 08:35:00
2:55 AM,29.7,26.2,87,30.57,10.0,North,8.1,-,N/A,,Clear,350,2013-12-24 08:55:00
3:15 AM,29.3,26.1,88,30.57,10.0,North,5.8,-,N/A,,Clear,350,2013-12-24 09:15:00
3:35 AM,29.1,26.1,88,30.57,10.0,NNW,5.8,-,N/A,,Clear,340,2013-12-24 09:35:00
3:55 AM,29.1,25.9,88,30.56,10.0,NNE,6.9,-,N/A,,Clear,20,2013-12-24 09:55:00
4:15 AM,28.4,25.7,90,30.55,10.0,NNE,5.8,-,N/A,,Clear,20,2013-12-24 10:15:00
4:35 AM,28.4,25.7,90,30.55,10.0,North,5.8,-,N/A,,Clear,360,2013-12-24 10:35:00
4:55 AM,28.6,25.7,89,30.55,10.0,NNE,5.8,-,N/A,,Clear,20,2013-12-24 10:55:00
5:15 AM,27.7,25.0,90,30.54,10.0,NE,3.5,-,N/A,,Clear,50,2013-12-24 11:15:00
5:35 AM,26.6,24.3,91,30.54,10.0,NE,3.5,-,N/A,,Clear,50,2013-12-24 11:35:00
5:55 AM,27.0,24.6,91,30.55,10.0,Calm,Calm,-,N/A,,Clear,0,2013-12-24 11:55:00
6:15 AM,26.6,24.4,92,30.55,10.0,North,3.5,-,N/A,,Clear,10,2013-12-24 12:15:00
6:35 AM,26.6,24.6,92,30.56,10.0,North,4.6,-,N/A,,Clear,10,2013-12-24 12:35:00
6:55 AM,26.6,24.3,91,30.57,7.0,Calm,Calm,-,N/A,,Clear,0,2013-12-24 12:55:00
7:15 AM,26.2,24.3,92,30.57,7.0,NE,4.6,-,N/A,,Clear,50,2013-12-24 13:15:00
7:35 AM,24.8,23.0,93,30.57,5.0,ENE,3.5,-,N/A,,Clear,70,2013-12-24 13:35:00
7:55 AM,25.7,24.4,95,30.57,5.0,ENE,3.5,-,N/A,,Clear,70,2013-12-24 13:55:00
8:15 AM,27.1,25.7,94,30.57,5.0,Calm,Calm,-,N/A,,Clear,0,2013-12-24 14:15:00
8:35 AM,28.4,25.7,90,30.58,7.0,Calm,Calm,-,N/A,,Clear,0,2013-12-24 14:35:00
8:55 AM,29.8,26.8,88,30.57,7.0,Calm,Calm,-,N/A,,Clear,0,2013-12-24 14:55:00
9:15 AM,31.1,27.5,87,30.57,7.0,East,4.6,-,N/A,,Clear,100,2013-12-24 15:15:00
9:35 AM,32.5,28.6,85,30.57,10.0,ESE,5.8,-,N/A,,Clear,120,2013-12-24 15:35:00
9:55 AM,35.2,30.0,81,30.57,10.0,SE,6.9,-,N/A,,Clear,140,2013-12-24 15:55:00
10:15 AM,36.3,30.0,78,30.57,10.0,SE,5.8,-,N/A,,Clear,130,2013-12-24 16:15:00
10:35 AM,38.5,30.7,74,30.55,10.0,ESE,5.8,-,N/A,,Clear,110,2013-12-24 16:35:00
10:55 AM,40.3,30.4,68,30.55,10.0,SE,8.1,-,N/A,,Clear,140,2013-12-24 16:55:00
11:15 AM,41.5,30.4,65,30.54,10.0,SE,5.8,-,N/A,,Clear,140,2013-12-24 17:15:00
11:35 AM,43.5,30.9,61,30.53,10.0,SE,8.1,-,N/A,,Clear,140,2013-12-24 17:35:00
11:55 AM,44.4,30.0,57,30.51,10.0,South,8.1,-,N/A,,Clear,170,2013-12-24 17:55:00
12:15 PM,45.3,30.6,56,30.50,10.0,South,8.1,-,N/A,,Clear,190,2013-12-24 18:15:00
12:35 PM,45.9,28.8,51,30.49,10.0,South,6.9,-,N/A,,Clear,190,2013-12-24 18:35:00
12:55 PM,46.8,29.7,51,30.47,10.0,South,5.8,-,N/A,,Clear,190,2013-12-24 18:55:00
1:15 PM,47.5,29.5,50,30.45,10.0,South,8.1,-,N/A,,Clear,170,2013-12-24 19:15:00
1:35 PM,48.6,29.5,48,30.44,10.0,SSE,11.5,-,N/A,,Clear,150,2013-12-24 19:35:00
1:55 PM,49.3,30.0,48,30.43,10.0,SSE,11.5,-,N/A,,Clear,160,2013-12-24 19:55:00
2:15 PM,49.5,29.8,47,30.42,10.0,SSE,10.4,-,N/A,,Clear,160,2013-12-24 20:15:00
2:35 PM,50.4,29.5,45,30.41,10.0,SSE,10.4,-,N/A,,Clear,160,2013-12-24 20:35:00
2:55 PM,50.2,29.3,45,30.39,10.0,South,10.4,16.1,N/A,,Clear,170,2013-12-24 20:55:00
3:15 PM,50.4,30.7,47,30.38,10.0,SSE,11.5,16.1,N/A,,Clear,150,2013-12-24 21:15:00
3:35 PM,50.9,31.1,47,30.37,10.0,SSE,10.4,16.1,N/A,,Clear,150,2013-12-24 21:35:00
3:55 PM,50.9,30.0,45,30.36,10.0,SSE,12.7,17.3,N/A,,Clear,160,2013-12-24 21:55:00
4:15 PM,51.1,30.6,45,30.36,10.0,SE,6.9,-,N/A,,Clear,140,2013-12-24 22:15:00
4:35 PM,50.7,30.0,45,30.36,10.0,SSE,10.4,17.3,N/A,,Clear,160,2013-12-24 22:35:00
4:55 PM,50.2,30.4,47,30.35,10.0,South,5.8,-,N/A,,Clear,170,2013-12-24 22:55:00
5:15 PM,48.6,30.4,50,30.35,10.0,SSE,6.9,-,N/A,,Clear,150,2013-12-24 23:15:00
5:35 PM,46.9,30.2,52,30.35,10.0,SSE,5.8,-,N/A,,Clear,150,2013-12-24 23:35:00
5:55 PM,45.5,30.0,55,30.34,10.0,SE,5.8,-,N/A,,Clear,140,2013-12-24 23:55:00
6:15 PM,45.0,30.0,56,30.34,10.0,SE,6.9,-,N/A,,Clear,140,2013-12-25 00:15:00
6:35 PM,44.2,30.2,58,30.33,10.0,SE,5.8,-,N/A,,Clear,140,2013-12-25 00:35:00
6:55 PM,43.2,30.2,60,30.34,10.0,SE,8.1,-,N/A,,Clear,130,2013-12-25 00:55:00
7:15 PM,42.8,30.6,62,30.33,10.0,SE,6.9,-,N/A,,Clear,140,2013-12-25 01:15:00
7:35 PM,41.7,30.7,65,30.33,10.0,SE,6.9,-,N/A,,Clear,130,2013-12-25 01:35:00
7:55 PM,41.0,31.1,68,30.33,10.0,SE,6.9,-,N/A,,Clear,140,2013-12-25 01:55:00
8:15 PM,41.9,31.6,67,30.33,10.0,SSE,8.1,-,N/A,,Clear,150,2013-12-25 02:15:00
8:35 PM,41.9,31.6,67,30.33,10.0,SSE,8.1,-,N/A,,Clear,150,2013-12-25 02:35:00
8:55 PM,41.5,31.6,68,30.33,10.0,SSE,8.1,-,N/A,,Clear,150,2013-12-25 02:55:00
9:15 PM,41.4,31.5,68,30.33,10.0,SSE,8.1,-,N/A,,Clear,160,2013-12-25 03:15:00
9:35 PM,41.0,31.3,68,30.33,10.0,SSE,6.9,-,N/A,,Clear,150,2013-12-25 03:35:00
9:55 PM,40.8,31.1,68,30.33,10.0,SSE,6.9,-,N/A,,Clear,150,2013-12-25 03:55:00
10:15 PM,41.4,31.1,67,30.33,10.0,SSE,8.1,-,N/A,,Clear,160,2013-12-25 04:15:00
10:35 PM,41.0,30.7,67,30.33,10.0,SSE,6.9,-,N/A,,Clear,160,2013-12-25 04:35:00
10:55 PM,40.6,30.7,68,30.33,10.0,SSE,8.1,-,N/A,,Clear,150,2013-12-25 04:55:00
11:15 PM,40.5,30.4,67,30.32,10.0,SSE,8.1,-,N/A,,Clear,160,2013-12-25 05:15:00
11:35 PM,39.7,30.6,70,30.32,10.0,SSE,6.9,-,N/A,,Clear,150,2013-12-25 05:35:00
11:55 PM,38.7,30.2,72,30.33,10.0,SSE,5.8,-,N/A,,Clear,150,2013-12-25 05:55:00